(2018 PY7) |
Classification: Apollo [NEO] SPK-ID: 3826626 |
[ hide orbit diagram ]
For accurate long-term ephemerides, please instead use our Horizons system.This orbit viewer was implemented using two-body methods, and hence should not be used for determining accurate long-term trajectories (over several years or decades) or planetary encounter circumstances.
Orbital Elements at Epoch 2459000.5 (2020-May-31.0) TDB
Reference: JPL 8 (heliocentric ecliptic J2000)
Element | Value | Uncertainty (1-sigma) | Units |
e | .3953617692431164 | 3.6853e-05 | |
a | 1.585449214732312 | 9.1015e-05 | au |
q | .9586232081506358 | 3.4004e-06 | au |
i | 11.19181518621991 | 0.00072547 | deg |
node | 311.8358423280688 | 5.9329e-05 | deg |
peri | 322.7883144898408 | 9.0242e-05 | deg |
M | 344.0623557402632 | 0.030093 | deg |
tp | 2459032.781117287328 (2020-Jul-02.28111729) | 0.063732 | TDB |
period | 729.1668727226242 2.00 | 0.062789 0.0001719 | d yr |
n | .4937141461950978 | 4.2514e-05 | deg/d |
Q | 2.212275221313989 | 0.000127 | au |
|
| | Orbit Determination Parameters
Additional Information
|
[ show covariance matrix ]
Physical Parameter Table
Parameter |
Symbol |
Value |
Units |
Sigma |
Reference |
Notes |
absolute magnitude |
H |
26.8 |
|
.43709 |
MPO452042 |
autocmod 2.6n |
|
[ show close-approach data ]
|